TimeEST,TemperatureF,Dew PointF,Humidity,Sea Level PressureIn,VisibilityMPH,Wind Direction,Wind SpeedMPH,Gust SpeedMPH,PrecipitationIn,Events,Conditions,WindDirDegrees,DateUTC
12:54 AM,34.0,30.9,89,30.05,5.0,SSW,4.6,-,N/A,,Clear,200,2013-02-15 05:54:00
1:54 AM,34.0,30.9,89,30.04,3.0,SSW,3.5,-,N/A,,Clear,200,2013-02-15 06:54:00
2:54 AM,34.0,30.9,89,30.05,3.0,SSW,5.8,-,N/A,,Clear,200,2013-02-15 07:54:00
3:16 AM,33.8,32.0,93,30.04,2.5,SSW,5.8,-,N/A,,Clear,210,2013-02-15 08:16:00
3:33 AM,33.8,32.0,93,30.03,3.0,SSW,4.6,-,N/A,,Clear,200,2013-02-15 08:33:00
3:40 AM,33.8,32.0,93,30.03,2.5,SSW,3.5,-,N/A,,Clear,210,2013-02-15 08:40:00
3:54 AM,34.0,32.0,92,30.04,2.5,SSW,3.5,-,N/A,,Clear,200,2013-02-15 08:54:00
4:32 AM,33.8,30.2,87,30.03,1.8,South,3.5,-,N/A,,Clear,180,2013-02-15 09:32:00
4:54 AM,33.1,30.9,92,30.03,2.0,South,5.8,-,N/A,,Clear,190,2013-02-15 09:54:00
5:54 AM,34.0,30.9,89,30.04,2.0,SSW,4.6,-,N/A,,Clear,210,2013-02-15 10:54:00
6:17 AM,33.8,30.2,87,30.03,1.8,SSW,3.5,-,N/A,,Clear,210,2013-02-15 11:17:00
6:46 AM,33.8,30.2,87,30.04,2.0,SSW,4.6,-,N/A,,Clear,210,2013-02-15 11:46:00
6:54 AM,33.1,30.9,92,30.04,1.2,SSW,4.6,-,N/A,,Clear,200,2013-02-15 11:54:00
7:04 AM,33.8,30.2,87,30.04,1.0,SSW,4.6,-,N/A,,Clear,210,2013-02-15 12:04:00
7:27 AM,33.8,32.0,93,30.05,1.2,SSW,4.6,-,N/A,,Clear,210,2013-02-15 12:27:00
7:54 AM,35.1,33.1,92,30.06,1.5,South,5.8,-,N/A,,Clear,190,2013-02-15 12:54:00
8:13 AM,37.4,33.8,87,30.07,2.0,SSW,5.8,-,N/A,,Clear,200,2013-02-15 13:13:00
8:35 AM,37.4,35.6,93,30.07,3.0,SSW,6.9,-,N/A,,Clear,200,2013-02-15 13:35:00
8:54 AM,39.9,37.0,89,30.07,4.0,SSW,9.2,-,N/A,,Clear,200,2013-02-15 13:54:00
9:54 AM,45.0,37.9,76,30.07,8.0,SSW,5.8,-,N/A,,Clear,200,2013-02-15 14:54:00
10:54 AM,48.9,37.0,64,30.06,10.0,Variable,4.6,-,N/A,,Clear,0,2013-02-15 15:54:00
11:54 AM,53.1,37.9,57,30.04,10.0,South,5.8,-,N/A,,Clear,170,2013-02-15 16:54:00
12:54 PM,55.9,37.0,49,30.00,10.0,Variable,3.5,-,N/A,,Clear,0,2013-02-15 17:54:00
1:54 PM,57.9,35.1,42,29.98,10.0,SW,8.1,-,N/A,,Clear,220,2013-02-15 18:54:00
2:54 PM,59.0,33.1,38,29.95,10.0,SSW,11.5,-,N/A,,Clear,200,2013-02-15 19:54:00
3:54 PM,57.9,30.0,35,29.94,10.0,SSW,13.8,19.6,N/A,,Clear,210,2013-02-15 20:54:00
4:54 PM,57.0,28.9,34,29.94,10.0,SSW,10.4,-,N/A,,Clear,210,2013-02-15 21:54:00
5:54 PM,48.9,37.0,64,29.94,10.0,SSE,10.4,-,N/A,,Clear,160,2013-02-15 22:54:00
6:54 PM,45.0,34.0,65,29.94,10.0,South,8.1,-,N/A,,Clear,170,2013-02-15 23:54:00
7:54 PM,44.1,33.1,65,29.94,10.0,South,6.9,-,N/A,,Clear,180,2013-02-16 00:54:00
8:54 PM,42.1,32.0,67,29.94,10.0,South,5.8,-,N/A,,Clear,180,2013-02-16 01:54:00
9:54 PM,43.0,34.0,71,29.98,10.0,WNW,10.4,17.3,N/A,,Partly Cloudy,300,2013-02-16 02:54:00
10:54 PM,45.0,33.1,63,29.99,10.0,Calm,Calm,-,N/A,,Mostly Cloudy,0,2013-02-16 03:54:00
11:54 PM,43.0,33.1,68,29.99,10.0,Variable,5.8,-,N/A,,Mostly Cloudy,0,2013-02-16 04:54:00